Back to catalog

NSS 6

AliveCommunicationsGEO
NORAD 27603·PAYLOAD·🇱🇺 Luxembourg

Launched Dec 17, 2002 from Guiana Space Centre

Loading…

TLE

FreshSource: Space-Track

Epoch: Sep 14, 2026, 13:25 UTC

1 27603U 02057A   26257.55923167  .00000059  00000-0  00000-0 0  9996
2 27603   5.6035  73.2757 0007791 219.2000 123.0992  0.99124171 86800

Track NSS 6 in real time with AllMySat

Download on the App Store